SAS427 ESGG-ENGM

Flight info

Callsign SAS427
Flight time 0h 36m
Altitude 32000
Route SABAK L997 XENTA DCT REGMA DCT LUNIP
Aircraft A20N/M-SDE2E3FGHIRWXY/LB1

Departure

Time 2026-05-03 22:00
Airport Göteborg Landvetter Airport (ESGG)

Arrival

Time 2026-05-03 22:37
Airport Oslo-Gardermoen International Airport (ENGM)
Time Latitude Longitude Altitude Speed Heading
2026-05-03 21:15 57.66934 12.29465 530 ft 0 kts 116°
2026-05-03 21:49 57.66937 12.29453 520 ft 1 kts 116°
2026-05-03 21:50 57.66941 12.29441 521 ft 1 kts 116°
2026-05-03 21:50 57.66944 12.29428 521 ft 1 kts 116°
2026-05-03 21:50 57.66948 12.29415 521 ft 1 kts 116°
2026-05-03 21:50 57.66951 12.29402 521 ft 1 kts 116°
2026-05-03 21:51 57.66954 12.29389 521 ft 1 kts 116°
2026-05-03 21:51 57.66957 12.29376 521 ft 1 kts 101°
2026-05-03 21:51 57.66959 12.29362 520 ft 1 kts 86°
2026-05-03 21:51 57.66958 12.29348 520 ft 1 kts 71°
2026-05-03 21:52 57.66955 12.29334 519 ft 1 kts 56°
2026-05-03 21:52 57.66950 12.29323 519 ft 1 kts 41°
2026-05-03 21:52 57.66945 12.29314 519 ft 0 kts 28°
2026-05-03 21:54 57.66956 12.29324 518 ft 4 kts 22°
2026-05-03 21:54 57.66989 12.29272 514 ft 12 kts 302°
2026-05-03 21:55 57.67047 12.29195 516 ft 10 kts
2026-05-03 21:55 57.67118 12.29252 515 ft 13 kts 26°
2026-05-03 21:55 57.67210 12.29335 515 ft 16 kts 26°
2026-05-03 21:55 57.67319 12.29440 514 ft 19 kts 27°
2026-05-03 21:56 57.67425 12.29421 517 ft 16 kts 297°
2026-05-03 21:56 57.67459 12.29285 516 ft 0 kts 278°
2026-05-03 21:57 57.67459 12.29282 516 ft 0 kts 278°
2026-05-03 21:58 57.67460 12.29263 515 ft 5 kts 276°
2026-05-03 21:58 57.67458 12.29159 513 ft 11 kts 263°
2026-05-03 21:59 57.67426 12.29022 514 ft 11 kts 221°
2026-05-03 21:59 57.67407 12.29000 515 ft 0 kts 207°
2026-05-03 21:59 57.67322 12.28920 516 ft 48 kts 206°
2026-05-03 21:59 57.66770 12.28418 514 ft 126 kts 206°
2026-05-03 22:00 57.65810 12.27562 777 ft 163 kts 204°
2026-05-03 22:00 57.64806 12.26705 1791 ft 157 kts 207°
2026-05-03 22:00 57.63815 12.25823 2707 ft 161 kts 208°
2026-05-03 22:00 57.62758 12.24839 3272 ft 179 kts 209°
2026-05-03 22:01 57.61586 12.23721 3785 ft 199 kts 209°
2026-05-03 22:01 57.60262 12.22487 4195 ft 227 kts 207°
2026-05-03 22:01 57.58778 12.21098 4727 ft 249 kts 213°
2026-05-03 22:01 57.57564 12.18733 5481 ft 258 kts 242°
2026-05-03 22:02 57.57123 12.15510 6489 ft 261 kts 269°
2026-05-03 22:02 57.57560 12.12212 7456 ft 268 kts 296°
2026-05-03 22:02 57.58799 12.09570 8403 ft 278 kts 323°
2026-05-03 22:02 57.60601 12.08120 9320 ft 289 kts 343°
2026-05-03 22:03 57.62588 12.07351 10168 ft 296 kts 346°
2026-05-03 22:03 57.64667 12.06437 10558 ft 318 kts 341°
2026-05-03 22:03 57.66849 12.05134 10870 ft 339 kts 337°
2026-05-03 22:03 57.68949 12.03630 11522 ft 345 kts 335°
2026-05-03 22:04 57.71179 12.01906 12351 ft 349 kts 334°
2026-05-03 22:04 57.73430 12.00110 13153 ft 354 kts 333°
2026-05-03 22:04 57.75685 11.98297 13901 ft 359 kts 333°
2026-05-03 22:04 57.77989 11.96445 14654 ft 362 kts 333°
2026-05-03 22:05 57.80283 11.94604 15394 ft 365 kts 332°
2026-05-03 22:05 57.82629 11.92722 16131 ft 368 kts 332°
2026-05-03 22:05 57.85001 11.90816 16857 ft 372 kts 332°
2026-05-03 22:05 57.87392 11.88894 17579 ft 375 kts 331°
2026-05-03 22:06 57.89797 11.86958 18264 ft 379 kts 331°
2026-05-03 22:06 57.92238 11.84988 18846 ft 383 kts 331°
2026-05-03 22:06 57.94688 11.83011 19460 ft 387 kts 330°
2026-05-03 22:06 57.97175 11.81000 20020 ft 392 kts 330°
2026-05-03 22:07 57.99694 11.78958 20584 ft 396 kts 330°
2026-05-03 22:07 58.02224 11.76906 21134 ft 401 kts 330°
2026-05-03 22:07 58.04801 11.74813 21685 ft 405 kts 330°
2026-05-03 22:07 58.07402 11.72696 22241 ft 409 kts 330°
2026-05-03 22:08 58.10035 11.70550 22792 ft 414 kts 329°
2026-05-03 22:08 58.12684 11.68388 23328 ft 418 kts 329°
2026-05-03 22:08 58.15377 11.66189 23820 ft 422 kts 330°
2026-05-03 22:08 58.18185 11.64365 24319 ft 432 kts 338°
2026-05-03 22:09 58.21163 11.63235 24803 ft 441 kts 345°
2026-05-03 22:09 58.24198 11.62329 25257 ft 443 kts 344°
2026-05-03 22:09 58.27250 11.61387 25706 ft 446 kts 343°
2026-05-03 22:10 58.33273 11.59512 26570 ft 452 kts 343°
2026-05-03 22:10 58.36407 11.58539 26996 ft 455 kts 343°
2026-05-03 22:10 58.39546 11.57564 27412 ft 458 kts 343°
2026-05-03 22:10 58.42698 11.56585 27814 ft 460 kts 343°
2026-05-03 22:11 58.45867 11.55599 28202 ft 463 kts 343°
2026-05-03 22:11 58.49058 11.54605 28581 ft 465 kts 343°
2026-05-03 22:11 58.52261 11.53607 28998 ft 468 kts 343°
2026-05-03 22:11 58.55476 11.52604 29364 ft 470 kts 342°
2026-05-03 22:12 58.58710 11.51590 29697 ft 473 kts 342°
2026-05-03 22:12 58.61969 11.50566 30015 ft 475 kts 342°
2026-05-03 22:12 58.65201 11.49548 30332 ft 477 kts 342°
2026-05-03 22:12 58.68504 11.48508 30666 ft 479 kts 342°
2026-05-03 22:13 58.71541 11.47550 30962 ft 481 kts 342°
2026-05-03 22:13 58.74841 11.46509 31274 ft 480 kts 342°
2026-05-03 22:13 58.78140 11.45467 31258 ft 479 kts 342°
2026-05-03 22:13 58.81421 11.44428 30885 ft 478 kts 342°
2026-05-03 22:14 58.84709 11.43380 30144 ft 480 kts 342°
2026-05-03 22:14 58.88025 11.42313 29029 ft 486 kts 342°
2026-05-03 22:14 58.91367 11.41237 28062 ft 487 kts 343°
2026-05-03 22:14 58.94690 11.40175 27386 ft 482 kts 343°
2026-05-03 22:15 58.97987 11.39124 26732 ft 476 kts 343°
2026-05-03 22:15 59.01221 11.38089 26301 ft 465 kts 343°
2026-05-03 22:15 59.04366 11.37086 26127 ft 450 kts 343°
2026-05-03 22:15 59.07406 11.36115 25976 ft 435 kts 343°
2026-05-03 22:16 59.10345 11.35169 25817 ft 420 kts 342°
2026-05-03 22:16 59.13124 11.33967 25733 ft 401 kts 338°
2026-05-03 22:16 59.15819 11.32986 25516 ft 406 kts 347°
2026-05-03 22:16 59.18759 11.32897 25148 ft 436 kts 353°
2026-05-03 22:17 59.21837 11.32966 24901 ft 445 kts 354°
2026-05-03 22:17 59.24931 11.33107 24558 ft 445 kts 354°
2026-05-03 22:17 59.28032 11.33282 23952 ft 446 kts 355°
2026-05-03 22:17 59.31149 11.33468 23130 ft 449 kts 355°
2026-05-03 22:18 59.34201 11.33652 22392 ft 446 kts 355°
2026-05-03 22:18 59.37291 11.33839 21736 ft 441 kts 356°
2026-05-03 22:18 59.40346 11.34021 21103 ft 437 kts 355°
2026-05-03 22:18 59.43371 11.34201 20463 ft 432 kts 356°
2026-05-03 22:19 59.46340 11.34381 19913 ft 420 kts 356°
2026-05-03 22:19 59.49211 11.34560 19357 ft 406 kts 356°
2026-05-03 22:19 59.51989 11.34730 18843 ft 395 kts 356°
2026-05-03 22:19 59.54730 11.34891 18315 ft 392 kts 356°
2026-05-03 22:20 59.57444 11.35047 17757 ft 388 kts 356°
2026-05-03 22:20 59.60123 11.35206 17235 ft 384 kts 356°
2026-05-03 22:20 59.62782 11.35367 16727 ft 379 kts 356°
2026-05-03 22:20 59.65403 11.35525 16218 ft 375 kts 356°
2026-05-03 22:21 59.67998 11.35682 15723 ft 371 kts 356°
2026-05-03 22:21 59.70526 11.35837 15189 ft 370 kts 356°
2026-05-03 22:21 59.73125 11.35993 14729 ft 365 kts 356°
2026-05-03 22:21 59.75623 11.36142 14252 ft 362 kts 356°
2026-05-03 22:22 59.78130 11.36292 13774 ft 360 kts 356°
2026-05-03 22:22 59.80622 11.36442 13259 ft 356 kts 356°
2026-05-03 22:22 59.83090 11.36593 12790 ft 352 kts 357°
2026-05-03 22:22 59.85518 11.36742 12471 ft 347 kts 357°
2026-05-03 22:23 59.87946 11.36886 12199 ft 350 kts 357°
2026-05-03 22:23 59.90376 11.37032 11937 ft 349 kts 357°
2026-05-03 22:23 59.92792 11.37182 11679 ft 346 kts 357°
2026-05-03 22:23 59.95193 11.37330 11425 ft 345 kts 358°
2026-05-03 22:24 59.97587 11.37478 11194 ft 343 kts 358°
2026-05-03 22:24 59.99965 11.37624 10932 ft 341 kts 358°
2026-05-03 22:24 60.02328 11.37770 10685 ft 339 kts 358°
2026-05-03 22:24 60.04686 11.37914 10437 ft 338 kts 358°
2026-05-03 22:25 60.06912 11.38051 10206 ft 337 kts 358°
2026-05-03 22:25 60.09260 11.38196 9960 ft 335 kts 358°
2026-05-03 22:25 60.11588 11.38341 9718 ft 334 kts 358°
2026-05-03 22:25 60.13902 11.38485 9458 ft 332 kts 358°
2026-05-03 22:26 60.16205 11.38632 9186 ft 330 kts 358°
2026-05-03 22:26 60.18497 11.38774 8920 ft 329 kts 358°
2026-05-03 22:26 60.20749 11.38914 8660 ft 328 kts 358°
2026-05-03 22:26 60.23020 11.39056 8395 ft 326 kts 358°
2026-05-03 22:27 60.25283 11.39197 8141 ft 325 kts 358°
2026-05-03 22:27 60.27535 11.39339 7930 ft 320 kts 358°
2026-05-03 22:27 60.29719 11.39483 7799 ft 307 kts 358°
2026-05-03 22:27 60.31790 11.39622 7611 ft 288 kts 358°
2026-05-03 22:28 60.33722 11.39752 7443 ft 270 kts 358°
2026-05-03 22:28 60.35544 11.39871 7252 ft 254 kts 358°
2026-05-03 22:28 60.37298 11.39979 6738 ft 252 kts 358°
2026-05-03 22:28 60.38986 11.40008 6227 ft 248 kts 349°
2026-05-03 22:29 60.40547 11.38821 5620 ft 238 kts 318°
2026-05-03 22:29 60.41510 11.36418 5047 ft 230 kts 288°
2026-05-03 22:29 60.41713 11.33345 4541 ft 221 kts 259°
2026-05-03 22:29 60.41436 11.30300 4119 ft 220 kts 257°
2026-05-03 22:30 60.41180 11.27335 4010 ft 213 kts 257°
2026-05-03 22:30 60.40940 11.24399 4006 ft 205 kts 258°
2026-05-03 22:30 60.40627 11.21713 3973 ft 188 kts 241°
2026-05-03 22:30 60.39820 11.19879 3934 ft 166 kts 214°
2026-05-03 22:31 60.38820 11.19103 3840 ft 144 kts 198°
2026-05-03 22:31 60.37906 11.18622 3676 ft 129 kts 198°
2026-05-03 22:31 60.37096 11.18137 3554 ft 118 kts 200°
2026-05-03 22:31 60.36261 11.17627 3514 ft 126 kts 199°
2026-05-03 22:32 60.35422 11.17145 3456 ft 125 kts 199°
2026-05-03 22:32 60.34866 11.16825 3371 ft 125 kts 198°
2026-05-03 22:32 60.34042 11.16348 3239 ft 123 kts 199°
2026-05-03 22:32 60.33211 11.15869 3093 ft 123 kts 198°
2026-05-03 22:33 60.32391 11.15396 2941 ft 123 kts 198°
2026-05-03 22:33 60.31617 11.14944 2787 ft 122 kts 198°
2026-05-03 22:33 60.30794 11.14473 2623 ft 123 kts 197°
2026-05-03 22:33 60.29980 11.14002 2461 ft 120 kts 197°
2026-05-03 22:34 60.29170 11.13534 2295 ft 122 kts 197°
2026-05-03 22:34 60.28346 11.13060 2118 ft 123 kts 197°
2026-05-03 22:34 60.27531 11.12588 1935 ft 121 kts 197°
2026-05-03 22:34 60.26718 11.12118 1782 ft 122 kts 198°
2026-05-03 22:35 60.25908 11.11651 1612 ft 121 kts 197°
2026-05-03 22:35 60.25104 11.11187 1436 ft 123 kts 196°
2026-05-03 22:35 60.24271 11.10705 1263 ft 125 kts 196°
2026-05-03 22:35 60.23435 11.10222 1088 ft 125 kts 195°
2026-05-03 22:36 60.22606 11.09745 927 ft 125 kts 194°
2026-05-03 22:36 60.21769 11.09259 755 ft 124 kts 195°
2026-05-03 22:36 60.20964 11.08801 679 ft 110 kts 196°
2026-05-03 22:36 60.20511 11.08542 679 ft 52 kts 196°
2026-05-03 22:37 60.20255 11.08547 676 ft 28 kts 123°
2026-05-03 22:37 60.20211 11.08872 678 ft 22 kts 104°
2026-05-03 22:37 60.20169 11.09163 679 ft 22 kts 107°
2026-05-03 22:37 60.20122 11.09461 680 ft 23 kts 106°
2026-05-03 22:38 60.20084 11.09708 683 ft 16 kts 123°
2026-05-03 22:38 60.19990 11.09781 682 ft 16 kts 195°
2026-05-03 22:38 60.19872 11.09731 681 ft 18 kts 191°
2026-05-03 22:38 60.19745 11.09667 681 ft 19 kts 205°
2026-05-03 22:39 60.19660 11.09576 681 ft 0 kts 209°
2026-05-03 22:39 60.19648 11.09563 678 ft 3 kts 207°
2026-05-03 22:39 60.19618 11.09541 681 ft 6 kts 197°
2026-05-03 22:39 60.19574 11.09515 678 ft 6 kts 196°
2026-05-03 22:40 60.19553 11.09503 681 ft 0 kts 196°